When you browse on this site, cookies collect data to enhance your experience and personalize the content and advertising you see.
Visit our Privacy Policy to learn more. By continuing to use the site, you agree to this use of cookies and data.
  • In Netherlands
  • List of Countries
  • For 7 days
  • Water Temperature
  • Satellite Maps
  • Weather Map
  • Weather Widgets
  • user-avatar
    Login

    Hourly Weather Hotinlahti

    Today, 21 February, Thursday

    Time Temperature Precipitation Wind Pressure Humidity
    00:00 -12°C° 0.1 mm 8 mps 749 mmHg 78%
    01:00 -12°C° 0.1 mm 8 mps 751 mmHg 76%
    02:00 -13°C° 0 mm 8 mps 752 mmHg 74%
    03:00 -13°C° 0 mm 7 mps 753 mmHg 75%
    04:00 -13°C° 0 mm 7 mps 754 mmHg 76%
    05:00 -13°C° 0 mm 7 mps 755 mmHg 77%
    06:00 -14°C° 0 mm 6 mps 756 mmHg 79%
    07:00 -14°C° 0 mm 6 mps 757 mmHg 80%
    08:00 -15°C° 0 mm 6 mps 759 mmHg 83%
    09:00 -15°C° 0 mm 6 mps 759 mmHg 82%
    10:00 -14°C° 0 mm 6 mps 760 mmHg 80%
    11:00 -12°C° 0 mm 6 mps 761 mmHg 79%
    12:00 -12°C° 0 mm 6 mps 762 mmHg 79%
    13:00 -12°C° 0 mm 5 mps 762 mmHg 79%
    14:00 -11°C° 0 mm 5 mps 763 mmHg 78%
    15:00 -12°C° 0 mm 5 mps 764 mmHg 80%
    16:00 -13°C° 0 mm 5 mps 764 mmHg 82%
    17:00 -13°C° 0 mm 5 mps 765 mmHg 84%
    18:00 -14°C° 0 mm 5 mps 766 mmHg 85%
    19:00 -14°C° 0 mm 5 mps 767 mmHg 86%
    20:00 -15°C° 0 mm 5 mps 767 mmHg 87%
    21:00 -15°C° 0 mm 4 mps 768 mmHg 88%
    22:00 -15°C° 0 mm 4 mps 769 mmHg 88%
    23:00 -16°C° 0 mm 4 mps 769 mmHg 89%

    Tomorrow, 22 February, Friday

    Time Temperature Precipitation Wind Pressure Humidity
    00:00 -16°C° 0 mm 4 mps 770 mmHg 89%
    01:00 -16°C° 0 mm 4 mps 771 mmHg 89%
    02:00 -17°C° 0 mm 4 mps 772 mmHg 89%
    03:00 -17°C° 0 mm 4 mps 772 mmHg 87%
    04:00 -17°C° 0 mm 4 mps 773 mmHg 86%
    05:00 -17°C° 0 mm 4 mps 773 mmHg 85%
    06:00 -17°C° 0 mm 4 mps 774 mmHg 84%
    07:00 -18°C° 0 mm 4 mps 774 mmHg 83%
    08:00 -18°C° 0 mm 4 mps 775 mmHg 83%
    09:00 -17°C° 0 mm 4 mps 775 mmHg 82%
    10:00 -16°C° 0 mm 4 mps 776 mmHg 81%
    11:00 -15°C° 0 mm 4 mps 776 mmHg 80%
    12:00 -13°C° 0 mm 3 mps 776 mmHg 80%
    13:00 -12°C° 0 mm 3 mps 776 mmHg 81%
    14:00 -12°C° 0 mm 3 mps 776 mmHg 82%
    15:00 -13°C° 0 mm 3 mps 776 mmHg 85%
    16:00 -14°C° 0 mm 3 mps 776 mmHg 87%
    17:00 -14°C° 0 mm 2 mps 777 mmHg 90%
    18:00 -14°C° 0 mm 2 mps 776 mmHg 89%
    19:00 -15°C° 0 mm 2 mps 776 mmHg 88%
    20:00 -15°C° 0 mm 2 mps 776 mmHg 87%
    21:00 -15°C° 0 mm 2 mps 776 mmHg 87%
    22:00 -15°C° 0 mm 2 mps 776 mmHg 86%
    23:00 -15°C° 0 mm 2 mps 775 mmHg 86%

    Day after tomorrow, 23 February, Saturday

    Time Temperature Precipitation Wind Pressure Humidity
    00:00 -14°C° 0 mm 3 mps 775 mmHg 83%
    01:00 -13°C° 0 mm 3 mps 774 mmHg 80%
    02:00 -12°C° 0 mm 4 mps 773 mmHg 77%
    03:00 -12°C° 0.2 mm 4 mps 772 mmHg 82%
    04:00 -12°C° 0.2 mm 5 mps 771 mmHg 87%
    05:00 -11°C° 0.2 mm 5 mps 770 mmHg 92%
    06:00 -10°C° 0.7 mm 5 mps 769 mmHg 93%
    07:00 -8°C° 0.7 mm 5 mps 768 mmHg 93%
    08:00 -7°C° 0.7 mm 5 mps 767 mmHg 93%
    09:00 -6°C° 0.3 mm 5 mps 767 mmHg 92%
    10:00 -5°C° 0.3 mm 5 mps 766 mmHg 92%
    11:00 -2°C° 0.3 mm 5 mps 765 mmHg 91%
    12:00 -1°C° 0 mm 4 mps 765 mmHg 93%
    13:00 -1°C° 0 mm 4 mps 765 mmHg 95%
    14:00 0°C° 0 mm 4 mps 764 mmHg 96%
    15:00 0°C° 0 mm 4 mps 764 mmHg 97%
    16:00 0°C° 0 mm 4 mps 764 mmHg 97%
    17:00 0°C° 0 mm 4 mps 764 mmHg 97%
    18:00 0°C° 0 mm 4 mps 764 mmHg 97%
    19:00 0°C° 0 mm 4 mps 764 mmHg 96%
    20:00 0°C° 0 mm 4 mps 764 mmHg 96%
    21:00 0°C° 0 mm 4 mps 764 mmHg 96%
    22:00 +1°C° 0 mm 3 mps 764 mmHg 97%
    23:00 +1°C° 0 mm 3 mps 764 mmHg 97%

    24 February, Sunday

    Time Temperature Precipitation Wind Pressure Humidity
    00:00 +1°C° 0 mm 3 mps 765 mmHg 97%
    01:00 +1°C° 0 mm 3 mps 765 mmHg 96%
    02:00 +1°C° 0 mm 3 mps 765 mmHg 96%
    03:00 0°C° 0 mm 3 mps 765 mmHg 96%
    04:00 0°C° 0 mm 3 mps 765 mmHg 96%
    05:00 0°C° 0 mm 3 mps 765 mmHg 96%
    06:00 0°C° 0 mm 3 mps 765 mmHg 96%
    07:00 +1°C° 0 mm 2 mps 765 mmHg 96%
    08:00 +1°C° 0 mm 2 mps 765 mmHg 96%
    09:00 +1°C° 0 mm 2 mps 765 mmHg 97%
    10:00 +1°C° 0 mm 2 mps 765 mmHg 98%
    11:00 +1°C° 0 mm 2 mps 764 mmHg 99%
    12:00 +1°C° 0 mm 2 mps 764 mmHg 99%
    13:00 +2°C° 0 mm 2 mps 763 mmHg 99%
    14:00 +1°C° 0 mm 3 mps 763 mmHg 99%
    15:00 +1°C° 0.1 mm 3 mps 762 mmHg 98%
    16:00 +1°C° 0.1 mm 3 mps 762 mmHg 97%
    17:00 0°C° 0.1 mm 4 mps 761 mmHg 97%
    18:00 +1°C° 0 mm 4 mps 761 mmHg 95%
    19:00 +1°C° 0 mm 5 mps 760 mmHg 94%
    20:00 +2°C° 0 mm 5 mps 760 mmHg 93%
    21:00 +1°C° 0 mm 6 mps 760 mmHg 90%
    22:00 +1°C° 0 mm 6 mps 760 mmHg 87%
    23:00 +1°C° 0 mm 6 mps 760 mmHg 84%

    25 February, Monday

    Time Temperature Precipitation Wind Pressure Humidity
    00:00 -1°C° 0 mm 6 mps 760 mmHg 82%
    01:00 -1°C° 0 mm 6 mps 761 mmHg 80%
    02:00 -2°C° 0 mm 6 mps 761 mmHg 77%
    03:00 -2°C° 0 mm 6 mps 761 mmHg 77%
    04:00 -2°C° 0 mm 6 mps 761 mmHg 77%
    05:00 -3°C° 0 mm 6 mps 761 mmHg 77%
    06:00 -3°C° 0 mm 6 mps 760 mmHg 77%
    07:00 -3°C° 0 mm 6 mps 760 mmHg 77%
    08:00 -3°C° 0 mm 6 mps 760 mmHg 77%
    09:00 -2°C° 0 mm 6 mps 759 mmHg 75%
    10:00 -1°C° 0 mm 6 mps 759 mmHg 74%
    11:00 -1°C° 0 mm 7 mps 759 mmHg 72%
    12:00 -1°C° 0 mm 7 mps 759 mmHg 71%
    13:00 0°C° 0 mm 7 mps 759 mmHg 71%
    14:00 0°C° 0 mm 7 mps 759 mmHg 71%
    15:00 -1°C° 0 mm 7 mps 759 mmHg 72%
    16:00 -1°C° 0 mm 6 mps 759 mmHg 73%
    17:00 -2°C° 0 mm 6 mps 760 mmHg 75%
    18:00 -2°C° 0 mm 5 mps 760 mmHg 77%
    19:00 -2°C° 0 mm 5 mps 760 mmHg 79%
    20:00 -3°C° 0 mm 4 mps 760 mmHg 82%
    21:00 -3°C° 0 mm 4 mps 760 mmHg 84%
    22:00 -4°C° 0 mm 4 mps 760 mmHg 86%
    23:00 -4°C° 0 mm 4 mps 760 mmHg 88%

    26 February, Tuesday

    Time Temperature Precipitation Wind Pressure Humidity
    00:00 -5°C° 0 mm 3 mps 760 mmHg 89%
    01:00 -5°C° 0 mm 3 mps 759 mmHg 91%
    02:00 -5°C° 0 mm 3 mps 759 mmHg 92%
    03:00 -5°C° 0 mm 3 mps 758 mmHg 93%
    04:00 -4°C° 0 mm 2 mps 758 mmHg 93%
    05:00 -4°C° 0 mm 2 mps 757 mmHg 93%
    06:00 -4°C° 0.3 mm 2 mps 756 mmHg 94%
    07:00 -2°C° 0.3 mm 1 mps 755 mmHg 96%
    08:00 -3°C° 0.3 mm 0 mps 754 mmHg 97%
    09:00 -1°C° 0.3 mm 1 mps 754 mmHg 95%
    10:00 -1°C° 0.3 mm 1 mps 754 mmHg 93%
    11:00 0°C° 0.3 mm 1 mps 754 mmHg 92%
    12:00 -2°C° 0 mm 2 mps 755 mmHg 89%
    13:00 -1°C° 0 mm 2 mps 755 mmHg 87%
    14:00 -1°C° 0 mm 3 mps 756 mmHg 84%
    15:00 -1°C° 0 mm 3 mps 757 mmHg 86%
    16:00 -2°C° 0 mm 2 mps 757 mmHg 89%
    17:00 -3°C° 0 mm 2 mps 758 mmHg 91%
    18:00 -3°C° 0 mm 2 mps 759 mmHg 92%
    19:00 -4°C° 0 mm 2 mps 760 mmHg 93%
    20:00 -4°C° 0 mm 2 mps 760 mmHg 94%
    21:00 -5°C° 0 mm 2 mps 760 mmHg 95%
    22:00 -5°C° 0 mm 2 mps 761 mmHg 95%
    23:00 -6°C° 0 mm 2 mps 761 mmHg 95%
    Show more